Weather in Hobart

Australia     42°49′07″S   147°17′50″E
temp.,
°C
wind,
m/s
gust,
m/s
humid.,
%
clouds,
%
prec.,
mm/h
press.,
hPa
HPBL,
m
16 may, sun
sun1601:00+7wnw41271100 0.0 10121353
04:00+8wnw3982100 0.3 1010887
07:00+8wnw31074100 0.1 10101100
10:00+9wnw31272100 0.2 10091668
13:00+10w5137077 0.3 10081818
16:00+9w6156370 0.6 10061677
19:00+6w2891100 1.6 10091001
22:00+4w268630 2.6 1013304
17 may, mon
mon1701:00+4w39846 0.0 1014436
04:00+3wnw258958 0.0 1015184
07:00+3wnw258884 0.0 1017302
10:00+8w4126810 0.1 10191492
13:00+10wsw5105262 0.1 10191631
16:00+9w4116228 0.1 10201432
19:00+5wnw36808 0.0 1022311
22:00+6nw2678100 0.0 1022379
18 may, tue
tue1801:00+7nw247995 0.0 1022148
04:00+8nw258177 0.0 1022173
07:00+8nw278297 0.0 1021323
10:00+11wnw4127180 0.0 10211405
13:00+13wnw5136085 0.0 10191446
16:00+12wnw41371100 0.0 10191365
19:00+11wnw4137196 0.0 10191169
22:00+11wnw41270100 0.0 10191115
19 may, wed
wed1901:00+12wnw41266100 0.0 10181206
04:00+10wnw4126790 0.0 1019975
07:00+11wnw4126587 0.0 10191057
10:00+13wnw41158100 0.0 10201142
13:00+15wnw41153100 0.0 10181257
16:00+14nw31060100 0.0 10181186
19:00+11nw3771100 0.0 1018296
22:00+10nw3872100 0.0 1017329
20 may, thu
thu2001:00+11nw41059100 0.0 1014703
04:00+12nw51854100 0.0 10121613
07:00+13nw6186799 0.1 10101753
10:00+10w6188042 1.7 10131587
13:00+11w617525 0.1 10142091
16:00+8w515555 0.2 10182044
19:00+7w5157257 0.1 10211783
22:00+6w3106881 0.2 10231128